Surface/Precipitation History
02/08/2018 18:35  to  2/9/2018 18:35
Change End Date:
Date/Time
(MDT)
Sf
Temp Chem Water Layer Surface Precipitation
Sfc Pvt Sub Frz Factor Pct Dpth DpthThk IcePct Cond Salin FI Type Intens Accum Rate
02/09/2018 18:30 Ice Warning 9.0F - - 32F 5 0% - - 100% 0 mhos 0 - None None 8.09 in 0.0 iph
02/09/2018 18:20 Ice Warning 9.1F - - 32F 5 0% - - 100% 0 mhos 0 - None None 8.11 in 0.0 iph
02/09/2018 18:20 Ice Warning 9.1F - - 32F 5 0% - - 100% 0 mhos 0 - None None 8.11 in 0.0 iph
02/09/2018 18:10 Ice Warning 9.3F - - 32F 5 0% - - 100% 0 mhos 0 - None None 8.11 in 0.0 iph
02/09/2018 18:05 Ice Warning 9.9F - - 32F 5 0% - - 100% 0 mhos 0 - None None 8.11 in 0.0 iph
02/09/2018 18:00 Ice Warning 10.2F - - 32F 5 0% - - 100% 0 mhos 0 - None None 8.11 in 0.0 iph
02/09/2018 17:50 Ice Warning 10.8F - - 32F 5 0% - - 100% 0 mhos 0 - None None 8.11 in 0.0 iph
02/09/2018 17:50 Ice Warning 10.8F - - 32F 5 0% - - 100% 0 mhos 0 - None None 8.11 in 0.0 iph
02/09/2018 17:40 Ice Warning 11.1F - - 32F 5 0% - - 100% 0 mhos 0 - None None 8.13 in 0.0 iph
02/09/2018 17:35 Ice Warning 11.3F - - 32F 5 0% - - 100% 0 mhos 0 - None None 8.13 in 0.0 iph
02/09/2018 17:30 Ice Warning 11.3F - - 32F 5 0% - - 100% 0 mhos 0 - None None 8.13 in 0.0 iph
02/09/2018 17:20 Ice Warning 11.5F - - 32F 5 0% - - 100% 0 mhos 0 - None None 8.14 in 0.0 iph
02/09/2018 17:20 Ice Warning 11.5F - - 32F 5 0% - - 100% 0 mhos 0 - None None 8.14 in 0.0 iph
02/09/2018 17:10 Ice Warning 11.8F - - 32F 5 0% - - 100% 0 mhos 0 - None None 8.17 in 0.0 iph
02/09/2018 17:05 Ice Warning 12.2F - - 32F 5 0% - - 100% 0 mhos 0 - None None 8.17 in 0.0 iph
Date/Time
(MDT)
Sf
Temp Chem Water Layer Surface Precipitation
Sfc Pvt Sub Frz Factor Pct Dpth DpthThk IcePct Cond Salin FI Type Intens Accum Rate
02/09/2018 16:59 Ice Warning 12.2F - - 32F 5 0% - - 100% 0 mhos 0 - None None 8.38 in 0.0 iph
02/09/2018 16:50 Ice Warning 12.6F - - 32F 5 0% - - 100% 0 mhos 0 - None None 8.40 in 0.0 iph
02/09/2018 16:49 Ice Warning 12.6F - - 32F 5 0% - - 100% 0 mhos 0 - None None 8.40 in 0.0 iph
02/09/2018 16:39 Ice Warning 12.6F - - 32F 5 0% - - 100% 0 mhos 0 - None None 8.48 in 0.0 iph
02/09/2018 16:35 Ice Warning 12.9F - - 32F 5 0% - - 100% 0 mhos 0 - None None 8.48 in 0.0 iph
02/09/2018 16:29 Ice Warning 13.6F - - 32F 5 0% - - 100% 0 mhos 0 - None None 8.67 in 0.0 iph
02/09/2018 16:20 Ice Warning 14.5F - - 32F 5 0% - - 100% 0 mhos 0 - None None 8.68 in 0.0 iph
02/09/2018 16:19 Ice Warning 14.9F - - 32F 5 0% - - 100% 0 mhos 0 - None None 8.68 in 0.0 iph
02/09/2018 16:09 Ice Warning 16.9F - - 32F 5 0% - - 100% 0 mhos 0 - None None 8.71 in 0.0 iph
02/09/2018 16:05 Ice Warning 17.2F - - 32F 5 0% - - 100% 0 mhos 0 - None None 8.71 in 0.0 iph
02/09/2018 15:59 Ice Warning 18.0F - - 32F 5 0% - - 100% 0 mhos 0 - None None 8.72 in 0.0 iph
02/09/2018 15:50 Ice Warning 19.4F - - 32F 10 0% - - 100% 0 mhos 0 - None None 8.72 in 0.0 iph
02/09/2018 15:49 Ice Warning 19.2F - - 32F 10 0% - - 100% 0 mhos 0 - None None 8.72 in 0.0 iph
02/09/2018 15:39 Ice Warning 19.4F - - 32F 10 0% - - 100% 0 mhos 0 - None None 8.72 in 0.0 iph
02/09/2018 15:35 Ice Warning 19.9F - - 32F 10 0% - - 100% 0 mhos 0 - None None 8.72 in 0.0 iph
Date/Time
(MDT)
Sf
Temp Chem Water Layer Surface Precipitation
Sfc Pvt Sub Frz Factor Pct Dpth DpthThk IcePct Cond Salin FI Type Intens Accum Rate
02/09/2018 15:29 Ice Warning 20.5F - - 32F 10 0% - - 100% 0 mhos 0 - None None 8.73 in 0.0 iph
02/09/2018 15:20 Ice Warning 20.5F - - 32F 15 0% - - 100% 0 mhos 0 - None None 8.73 in 0.0 iph
02/09/2018 15:19 Ice Warning 20.3F - - 32F 15 0% - - 100% 0 mhos 0 - None None 8.73 in 0.0 iph
02/09/2018 15:09 Ice Warning 19.6F - - 32F 10 0% - - 100% 0 mhos 0 - None None 8.73 in 0.0 iph
02/09/2018 15:05 Ice Warning 19.6F - - 32F 10 0% - - 100% 0 mhos 0 - None None 8.73 in 0.0 iph
02/09/2018 14:59 Ice Warning 19.4F - - 32F 10 0% - - 100% 0 mhos 0 - None None 8.74 in 0.0 iph
02/09/2018 14:50 Ice Warning 19.8F - - 32F 10 0% - - 100% 0 mhos 0 - None None 8.74 in 0.0 iph
02/09/2018 14:49 Ice Warning 19.8F - - 32F 10 0% - - 100% 0 mhos 0 - None None 8.74 in 0.0 iph
02/09/2018 14:39 Ice Warning 21.4F - - 32F 10 0% - - 100% 0 mhos 0 - None None 8.76 in 0.0 iph
02/09/2018 14:35 Ice Warning 22.5F - - 32F 15 0% - - 100% 0 mhos 0 - None None 8.76 in 0.0 iph
02/09/2018 14:29 Ice Warning 23.0F - - 32F 15 0% - - 100% 0 mhos 0 - None None 8.80 in 0.0 iph
02/09/2018 14:20 Ice Warning 23.0F - - 32F 15 0% - - 100% 0 mhos 0 - None None 8.81 in 0.0 iph
02/09/2018 14:19 Ice Warning 23.2F - - 32F 15 0% - - 100% 0 mhos 0 - None None 8.81 in 0.0 iph
02/09/2018 14:08 Ice Warning 23.9F - - 32F 15 0% - - 100% 0 mhos 0 - None None 8.81 in 0.0 iph
02/09/2018 14:05 Ice Warning 24.1F - - 32F 15 0% - - 100% 0 mhos 0 - None None 8.81 in 0.0 iph
Date/Time
(MDT)
Sf
Temp Chem Water Layer Surface Precipitation
Sfc Pvt Sub Frz Factor Pct Dpth DpthThk IcePct Cond Salin FI Type Intens Accum Rate
02/09/2018 13:58 Ice Warning 24.1F - - 32F 15 0% - - 100% 0 mhos 0 - None None 8.85 in 0.0 iph
02/09/2018 13:50 Ice Warning 21.7F - - 32F 15 0% - - 100% 0 mhos 0 - None None 8.91 in 0.0 iph
02/09/2018 13:48 Ice Warning 21.6F - - 32F 15 0% - - 100% 0 mhos 0 - None None 8.91 in 0.0 iph
02/09/2018 13:38 Ice Warning 17.2F - - 32F 5 0% - - 100% 0 mhos 0 - None None 8.91 in 0.0 iph
02/09/2018 13:35 Ice Warning 17.6F - - 32F 5 0% - - 100% 0 mhos 0 - None None 8.91 in 0.0 iph
02/09/2018 13:28 Ice Warning 17.6F - - 32F 10 0% - - 100% 0 mhos 0 - None None 8.92 in 0.0 iph
02/09/2018 13:20 Ice Warning 18.1F - - 32F 5 0% - - 100% 0 mhos 0 - None None 8.93 in 0.0 iph
02/09/2018 13:18 Ice Warning 18.0F - - 32F 5 0% - - 100% 0 mhos 0 - None None 8.93 in 0.0 iph
02/09/2018 13:08 Ice Warning 18.0F - - 32F 5 0% - - 100% 0 mhos 0 - None None 8.93 in 0.0 iph
02/09/2018 13:05 Ice Warning 18.0F - - 32F 5 0% - - 100% 0 mhos 0 - None None 8.93 in 0.0 iph
02/09/2018 12:58 Ice Warning 18.1F - - 32F 5 0% - - 100% 0 mhos 0 - None None 8.93 in 0.0 iph
02/09/2018 12:50 Ice Warning 18.5F - - 32F 5 0% - - 100% 0 mhos 0 - None None 8.94 in 0.0 iph
02/09/2018 12:48 Ice Warning 18.3F - - 32F 5 0% - - 100% 0 mhos 0 - None None 8.94 in 0.0 iph
02/09/2018 12:38 Ice Warning 18.0F - - 32F 5 0% - - 100% 0 mhos 0 - None None 8.94 in 0.0 iph
02/09/2018 12:35 Ice Warning 17.8F - - 32F 5 0% - - 100% 0 mhos 0 - None None 8.94 in 0.0 iph
Date/Time
(MDT)
Sf
Temp Chem Water Layer Surface Precipitation
Sfc Pvt Sub Frz Factor Pct Dpth DpthThk IcePct Cond Salin FI Type Intens Accum Rate
02/09/2018 12:28 Ice Warning 17.4F - - 32F 5 0% - - 100% 0 mhos 0 - None None 8.95 in 0.0 iph
02/09/2018 12:20 Ice Warning 17.1F - - 32F 5 0% - - 100% 0 mhos 0 - None None 8.96 in 0.0 iph
02/09/2018 12:18 Ice Warning 17.1F - - 32F 5 0% - - 100% 0 mhos 0 - None None 8.96 in 0.0 iph
02/09/2018 12:08 Ice Warning 16.9F - - 32F 5 0% - - 100% 0 mhos 0 - None None 9.02 in 0.0 iph
02/09/2018 12:05 Ice Warning 16.5F - - 32F 5 0% - - 100% 0 mhos 0 - None None 9.02 in 0.0 iph
02/09/2018 11:58 Ice Warning 16.3F - - 32F 5 0% - - 100% 0 mhos 0 - None None 9.07 in 0.0 iph
02/09/2018 11:50 Ice Warning 16.3F - - 32F 5 0% - - 100% 0 mhos 0 - None None 9.11 in 0.0 iph
02/09/2018 11:48 Ice Warning 16.3F - - 32F 5 0% - - 100% 0 mhos 0 - None None 9.11 in 0.0 iph
02/09/2018 11:38 Ice Warning 16.0F - - 32F 5 0% - - 100% 0 mhos 0 - None None 9.13 in 0.0 iph
02/09/2018 11:35 Ice Warning 16.0F - - 32F 5 0% - - 100% 0 mhos 0 - None None 9.13 in 0.0 iph
02/09/2018 11:28 Ice Warning 15.6F - - 32F 5 0% - - 100% 0 mhos 0 - None None 9.14 in 0.0 iph
02/09/2018 11:20 Ice Warning 15.3F - - 32F 5 0% - - 100% 0 mhos 0 - None None 9.17 in 0.0 iph
02/09/2018 11:17 Ice Warning 15.3F - - 32F 5 0% - - 100% 0 mhos 0 - None None 9.17 in 0.0 iph
02/09/2018 11:07 Ice Warning 14.9F - - 32F 5 0% - - 100% 0 mhos 0 - None None 9.33 in 0.0 iph
02/09/2018 11:05 Ice Warning 15.1F - - 32F 5 0% - - 100% 0 mhos 0 - None None 9.33 in 0.0 iph
Date/Time
(MDT)
Sf
Temp Chem Water Layer Surface Precipitation
Sfc Pvt Sub Frz Factor Pct Dpth DpthThk IcePct Cond Salin FI Type Intens Accum Rate
02/09/2018 10:57 Ice Warning 14.5F - - 32F 5 0% - - 100% 0 mhos 0 - None None 9.68 in 0.0 iph
02/09/2018 10:50 Ice Warning 14.4F - - 32F 5 0% - - 100% 0 mhos 0 - None None 9.93 in 0.0 iph
02/09/2018 10:47 Ice Warning 14.4F - - 32F 5 0% - - 100% 0 mhos 0 - None None 9.93 in 0.0 iph
02/09/2018 10:37 Ice Warning 14.2F - - 32F 5 0% - - 100% 0 mhos 0 - None None 10.00 in 0.0 iph
02/09/2018 10:35 Ice Warning 14.2F - - 32F 5 0% - - 100% 0 mhos 0 - None None 10.00 in 0.0 iph
02/09/2018 10:27 Ice Warning 14.0F - - 32F 5 0% - - 100% 0 mhos 0 - None None 10.02 in 0.0 iph
02/09/2018 10:20 Ice Warning 13.6F - - 32F 5 0% - - 100% 0 mhos 0 - None None 10.03 in 0.0 iph
02/09/2018 10:17 Ice Warning 13.6F - - 32F 5 0% - - 100% 0 mhos 0 - None None 10.03 in 0.0 iph
02/09/2018 10:07 Ice Warning 13.3F - - 32F 5 0% - - 100% 0 mhos 0 - None None 10.03 in 0.0 iph
02/09/2018 10:05 Ice Warning 13.3F - - 32F 5 0% - - 100% 0 mhos 0 - None None 10.03 in 0.0 iph
02/09/2018 09:57 Ice Warning 13.6F - - 32F 5 0% - - 100% 0 mhos 0 - None None 10.03 in 0.0 iph
02/09/2018 09:50 Ice Warning 14.2F - - 32F 5 0% - - 100% 0 mhos 0 - None None 10.03 in 0.0 iph
02/09/2018 09:47 Ice Warning 14.2F - - 32F 5 0% - - 100% 0 mhos 0 - None None 10.03 in 0.0 iph
02/09/2018 09:37 Ice Warning 14.5F - - 32F 5 0% - - 100% 0 mhos 0 - None None 10.03 in 0.0 iph
02/09/2018 09:35 Ice Warning 14.4F - - 32F 5 0% - - 100% 0 mhos 0 - None None 10.03 in 0.0 iph
Date/Time
(MDT)
Sf
Temp Chem Water Layer Surface Precipitation
Sfc Pvt Sub Frz Factor Pct Dpth DpthThk IcePct Cond Salin FI Type Intens Accum Rate
02/09/2018 09:27 Ice Warning 14.2F - - 32F 5 0% - - 100% 0 mhos 0 - None None 10.03 in 0.0 iph
02/09/2018 09:20 Ice Warning 14.2F - - 32F 5 0% - - 100% 0 mhos 0 - Snow Slight 10.03 in 0.0 iph
02/09/2018 09:17 Ice Warning 14.2F - - 32F 5 0% - - 100% 0 mhos 0 - Snow Slight 10.03 in 0.0 iph
02/09/2018 09:07 Ice Warning 14.2F - - 32F 5 0% - - 100% 0 mhos 0 - Snow Slight 10.02 in 0.0 iph
02/09/2018 09:05 Ice Warning 14.2F - - 32F 5 0% - - 100% 0 mhos 0 - Snow Slight 10.02 in 0.0 iph
02/09/2018 08:57 Ice Warning 14.2F - - 32F 5 0% - - 100% 0 mhos 0 - None None 10.02 in 0.0 iph
02/09/2018 08:50 Ice Warning 14.2F - - 32F 5 0% - - 100% 0 mhos 0 - Snow Slight 10.02 in 0.0 iph
02/09/2018 08:47 Ice Warning 14.2F - - 32F 5 0% - - 100% 0 mhos 0 - Snow Slight 10.02 in 0.0 iph
02/09/2018 08:37 Ice Warning 14.0F - - 32F 5 0% - - 100% 0 mhos 0 - None None 10.02 in 0.0 iph
02/09/2018 08:35 Ice Warning 13.8F - - 32F 5 0% - - 100% 0 mhos 0 - None None 10.02 in 0.0 iph
02/09/2018 08:27 Ice Warning 13.8F - - 32F 5 0% - - 100% 0 mhos 0 - Snow Slight 10.02 in 0.0 iph
02/09/2018 08:20 Ice Warning 14.0F - - 32F 5 0% - - 100% 0 mhos 0 - None None 10.02 in 0.0 iph
02/09/2018 08:16 Ice Warning 13.8F - - 32F 5 0% - - 100% 0 mhos 0 - None None 10.02 in 0.0 iph
02/09/2018 08:06 Ice Warning 13.8F - - 32F 5 0% - - 100% 0 mhos 0 - None None 10.02 in 0.0 iph
02/09/2018 08:05 Ice Warning 13.6F - - 32F 5 0% - - 100% 0 mhos 0 - None None 10.02 in 0.0 iph
Date/Time
(MDT)
Sf
Temp Chem Water Layer Surface Precipitation
Sfc Pvt Sub Frz Factor Pct Dpth DpthThk IcePct Cond Salin FI Type Intens Accum Rate
02/09/2018 07:56 Ice Warning 13.6F - - 32F 5 0% - - 100% 0 mhos 0 - None None 10.02 in 0.0 iph
02/09/2018 07:50 Ice Warning 13.8F - - 32F 5 0% - - 100% 0 mhos 0 - None None 10.02 in 0.0 iph
02/09/2018 07:46 Ice Warning 13.8F - - 32F 5 0% - - 100% 0 mhos 0 - None None 10.02 in 0.0 iph
02/09/2018 07:36 Ice Warning 14.4F - - 32F 5 0% - - 100% 0 mhos 0 - None None 10.02 in 0.0 iph
02/09/2018 07:35 Ice Warning 14.5F - - 32F 5 0% - - 100% 0 mhos 0 - None None 10.02 in 0.0 iph
02/09/2018 07:26 Ice Warning 14.9F - - 32F 5 0% - - 100% 0 mhos 0 - None None 10.02 in 0.0 iph
02/09/2018 07:20 Ice Warning 15.3F - - 32F 5 0% - - 100% 0 mhos 0 - None None 10.02 in 0.0 iph
02/09/2018 07:16 Ice Warning 15.3F - - 32F 5 0% - - 100% 0 mhos 0 - None None 10.02 in 0.0 iph
02/09/2018 07:06 Ice Warning 15.8F - - 32F 5 0% - - 100% 0 mhos 0 - None None 10.02 in 0.0 iph
02/09/2018 07:05 Ice Warning 15.8F - - 32F 5 0% - - 100% 0 mhos 0 - None None 10.02 in 0.0 iph
02/09/2018 06:56 Ice Warning 16.2F - - 32F 5 0% - - 100% 0 mhos 0 - None None 10.02 in 0.0 iph
02/09/2018 06:50 Ice Warning 16.3F - - 32F 5 0% - - 100% 0 mhos 0 - None None 10.02 in 0.0 iph
02/09/2018 06:46 Ice Warning 16.7F - - 32F 5 0% - - 100% 0 mhos 0 - None None 10.02 in 0.0 iph
02/09/2018 06:36 Ice Warning 16.9F - - 32F 5 0% - - 100% 0 mhos 0 - None None 10.02 in 0.0 iph
02/09/2018 06:35 Ice Warning 16.9F - - 32F 5 0% - - 100% 0 mhos 0 - None None 10.02 in 0.0 iph
Date/Time
(MDT)
Sf
Temp Chem Water Layer Surface Precipitation
Sfc Pvt Sub Frz Factor Pct Dpth DpthThk IcePct Cond Salin FI Type Intens Accum Rate
02/09/2018 06:26 Ice Warning 17.2F - - 32F 5 0% - - 100% 0 mhos 0 - Snow Slight 10.02 in 0.0 iph
02/09/2018 06:20 Ice Warning 17.4F - - 32F 5 0% - - 100% 0 mhos 0 - Snow Slight 10.02 in 0.0 iph
02/09/2018 06:16 Ice Warning 17.4F - - 32F 5 0% - - 100% 0 mhos 0 - Snow Slight 10.02 in 0.1 iph
02/09/2018 06:06 Ice Warning 18.0F - - 32F 5 0% - - 100% 0 mhos 0 - Snow Slight 10.01 in 0.0 iph
02/09/2018 06:05 Ice Warning 18.0F - - 32F 5 0% - - 100% 0 mhos 0 - Snow Slight 10.01 in 0.0 iph
02/09/2018 05:56 Ice Warning 18.1F - - 32F 5 0% - - 100% 0 mhos 0 - Snow Slight 10.01 in 0.0 iph
02/09/2018 05:50 Ice Warning 18.3F - - 32F 5 0% - - 100% 0 mhos 0 - Snow Slight 10.00 in 0.0 iph
02/09/2018 05:46 Ice Warning 18.3F - - 32F 5 0% - - 100% 0 mhos 0 - Snow Slight 10.00 in 0.1 iph
02/09/2018 05:36 Ice Warning 18.5F - - 32F 5 0% - - 100% 0 mhos 0 - Snow Slight 9.98 in 0.2 iph
02/09/2018 05:35 Ice Warning 18.7F - - 32F 5 0% - - 100% 0 mhos 0 - Snow Slight 9.97 in 0.1 iph
02/09/2018 05:26 Ice Warning 19.0F - - 32F 5 0% - - 100% 0 mhos 0 - Snow Slight 9.96 in 0.1 iph
02/09/2018 05:20 Ice Warning 19.4F - - 32F 5 0% - - 100% 0 mhos 0 - None None 9.96 in 0.0 iph
02/09/2018 05:15 Ice Warning 19.4F - - 32F 5 0% - - 100% 0 mhos 0 - None None 9.96 in 0.0 iph
02/09/2018 05:05 Ice Warning 20.3F - - 32F 5 0% - - 100% 0 mhos 0 - None None 9.96 in 0.0 iph
02/09/2018 05:05 Ice Warning 20.3F - - 32F 5 0% - - 100% 0 mhos 0 - None None 9.96 in 0.0 iph
Date/Time
(MDT)
Sf
Temp Chem Water Layer Surface Precipitation
Sfc Pvt Sub Frz Factor Pct Dpth DpthThk IcePct Cond Salin FI Type Intens Accum Rate
02/09/2018 04:55 Ice Warning 21.4F - - 32F 10 0% - - 100% 0 mhos 0 - Snow Slight 9.96 in 0.0 iph
02/09/2018 04:50 Ice Warning 22.6F - - 32F 15 0% - - 100% 0 mhos 0 - Snow Slight 9.96 in 0.0 iph
02/09/2018 04:45 Ice Warning 24.3F - - 32F 20 0% - - 100% 0 mhos 0 - Snow Slight 9.96 in 0.0 iph
02/09/2018 04:35 Ice Warning 24.1F - - 32F 20 0% - - 100% 0 mhos 0 - None None 9.96 in 0.0 iph
02/09/2018 04:35 Ice Warning 24.1F - - 32F 20 0% - - 100% 0 mhos 0 - None None 9.96 in 0.0 iph
02/09/2018 04:25 Ice Warning 24.1F - - 32F 20 0% - - 100% 0 mhos 0 - Snow Slight 9.96 in 0.0 iph
02/09/2018 04:20 Ice Warning 24.1F - - 32F 15 0% - - 100% 0 mhos 0 - Snow Slight 9.96 in 0.0 iph
02/09/2018 04:15 Ice Warning 24.1F - - 32F 20 0% - - 100% 0 mhos 0 - Snow Slight 9.96 in 0.0 iph
02/09/2018 04:05 Ice Warning 23.9F - - 32F 20 0% - - 100% 0 mhos 0 - Snow Slight 9.96 in 0.0 iph
02/09/2018 04:05 Ice Warning 23.9F - - 32F 20 0% - - 100% 0 mhos 0 - Snow Slight 9.96 in 0.0 iph
02/09/2018 03:55 Ice Warning 23.9F - - 32F 20 0% - - 100% 0 mhos 0 - None None 9.95 in 0.0 iph
02/09/2018 03:50 Ice Warning 23.9F - - 32F 15 0% - - 100% 0 mhos 0 - Snow Slight 9.95 in 0.0 iph
02/09/2018 03:45 Ice Warning 23.9F - - 32F 20 0% - - 100% 0 mhos 0 - Snow Slight 9.95 in 0.0 iph
02/09/2018 03:35 Ice Warning 23.9F - - 32F 20 0% - - 100% 0 mhos 0 - Snow Slight 9.95 in 0.0 iph
02/09/2018 03:35 Ice Warning 23.9F - - 32F 20 0% - - 100% 0 mhos 0 - Snow Slight 9.95 in 0.0 iph
Date/Time
(MDT)
Sf
Temp Chem Water Layer Surface Precipitation
Sfc Pvt Sub Frz Factor Pct Dpth DpthThk IcePct Cond Salin FI Type Intens Accum Rate
02/09/2018 03:25 Ice Warning 23.7F - - 32F 20 0% - - 100% 0 mhos 0 - Snow Slight 9.95 in 0.0 iph
02/09/2018 03:20 Ice Warning 23.7F - - 32F 20 0% - - 100% 0 mhos 0 - Snow Slight 9.94 in 0.0 iph
02/09/2018 03:15 Ice Warning 23.9F - - 32F 20 0% - - 100% 0 mhos 0 - Snow Slight 9.94 in 0.0 iph
02/09/2018 03:05 Ice Warning 23.7F - - 32F 20 0% - - 100% 0 mhos 0 - None None 9.94 in 0.0 iph
02/09/2018 03:05 Ice Warning 23.7F - - 32F 20 0% - - 100% 0 mhos 0 - None None 9.94 in 0.0 iph
02/09/2018 02:55 Ice Warning 23.7F - - 32F 20 0% - - 100% 0 mhos 0 - Snow Slight 9.94 in 0.0 iph
02/09/2018 02:50 Ice Warning 23.7F - - 32F 20 0% - - 100% 0 mhos 0 - Snow Slight 9.94 in 0.0 iph
02/09/2018 02:44 Ice Warning 23.7F - - 32F 20 0% - - 100% 0 mhos 0 - Snow Slight 9.94 in 0.0 iph
02/09/2018 02:35 Ice Warning 23.7F - - 32F 20 0% - - 100% 0 mhos 0 - Snow Slight 9.94 in 0.0 iph
02/09/2018 02:34 Ice Warning 23.7F - - 32F 20 0% - - 100% 0 mhos 0 - Snow Slight 9.94 in 0.0 iph
02/09/2018 02:24 Ice Warning 23.5F - - 32F 20 0% - - 100% 0 mhos 0 - Snow Slight 9.94 in 0.0 iph
02/09/2018 02:20 Ice Warning 23.5F - - 32F 20 0% - - 100% 0 mhos 0 - Snow Slight 9.93 in 0.0 iph
02/09/2018 02:14 Ice Warning 23.5F - - 32F 20 0% - - 100% 0 mhos 0 - Snow Slight 9.93 in 0.1 iph
02/09/2018 02:05 Ice Warning 23.4F - - 32F 20 0% - - 100% 0 mhos 0 - Snow Slight 9.92 in 0.1 iph
02/09/2018 02:04 Ice Warning 23.4F - - 32F 20 0% - - 100% 0 mhos 0 - Snow Slight 9.92 in 0.1 iph
Date/Time
(MDT)
Sf
Temp Chem Water Layer Surface Precipitation
Sfc Pvt Sub Frz Factor Pct Dpth DpthThk IcePct Cond Salin FI Type Intens Accum Rate
02/09/2018 01:54 Ice Warning 23.4F - - 32F 20 0% - - 100% 0 mhos 0 - Snow Slight 9.88 in 0.3 iph
02/09/2018 01:50 Ice Warning 23.4F - - 32F 15 0% - - 100% 0 mhos 0 - Snow Slight 9.87 in 0.3 iph
02/09/2018 01:44 Ice Warning 23.2F - - 32F 20 0% - - 100% 0 mhos 0 - Snow Slight 9.84 in 0.3 iph
02/09/2018 01:35 Ice Warning 23.2F - - 32F 20 0% - - 100% 0 mhos 0 - Snow Moderate 9.69 in 1.8 iph
02/09/2018 01:34 Ice Warning 23.2F - - 32F 20 0% - - 100% 0 mhos 0 - Snow Moderate 9.66 in 2.0 iph
02/09/2018 01:24 Ice Warning 23.0F - - 32F 20 0% - - 100% 0 mhos 0 - Snow Heavy 9.16 in 4.5 iph
02/09/2018 01:20 Ice Warning 23.0F - - 32F 20 0% - - 100% 0 mhos 0 - Snow Slight 8.95 in 1.0 iph
02/09/2018 01:14 Ice Warning 23.0F - - 32F 20 0% - - 100% 0 mhos 0 - Snow Moderate 8.83 in 1.6 iph
02/09/2018 01:05 Ice Warning 22.8F - - 32F 20 0% - - 100% 0 mhos 0 - Snow Slight 8.66 in 1.1 iph
02/09/2018 01:04 Ice Warning 22.8F - - 32F 20 0% - - 100% 0 mhos 0 - Snow Slight 8.64 in 1.1 iph
02/09/2018 00:54 Ice Warning 22.8F - - 32F 20 0% - - 100% 0 mhos 0 - Snow Moderate 8.45 in 1.7 iph
02/09/2018 00:50 Ice Warning 22.6F - - 32F 20 0% - - 100% 0 mhos 0 - Snow Moderate 8.35 in 1.5 iph
02/09/2018 00:44 Ice Warning 22.6F - - 32F 20 0% - - 100% 0 mhos 0 - Snow Slight 8.24 in 0.9 iph
02/09/2018 00:35 Ice Warning 22.6F - - 32F 20 0% - - 100% 0 mhos 0 - Snow Moderate 8.03 in 1.8 iph
02/09/2018 00:34 Ice Warning 22.6F - - 32F 20 0% - - 100% 0 mhos 0 - Snow Moderate 8.00 in 1.8 iph
Date/Time
(MDT)
Sf
Temp Chem Water Layer Surface Precipitation
Sfc Pvt Sub Frz Factor Pct Dpth DpthThk IcePct Cond Salin FI Type Intens Accum Rate
02/09/2018 00:24 Ice Warning 22.6F - - 32F 15 0% - - 100% 0 mhos 0 - Snow Slight 7.81 in 0.8 iph
02/09/2018 00:20 Ice Warning 22.5F - - 32F 15 0% - - 100% 0 mhos 0 - Snow Slight 7.76 in 0.7 iph
02/09/2018 00:14 Ice Warning 22.5F - - 32F 15 0% - - 100% 0 mhos 0 - Snow Slight 7.70 in 0.9 iph
02/09/2018 00:05 Ice Warning 22.3F - - 32F 15 0% - - 100% 0 mhos 0 - Snow Moderate 7.36 in 3.1 iph
02/09/2018 00:04 Ice Warning 22.3F - - 32F 15 0% - - 100% 0 mhos 0 - Snow Moderate 7.30 in 2.4 iph
02/08/2018 23:53 Ice Warning 22.3F - - 32F 15 0% - - 100% 0 mhos 0 - Snow Moderate 6.90 in 2.0 iph
02/08/2018 23:50 Ice Warning 22.1F - - 32F 15 0% - - 100% 0 mhos 0 - Snow Moderate 6.80 in 1.9 iph
02/08/2018 23:43 Ice Warning 22.1F - - 32F 15 0% - - 100% 0 mhos 0 - Snow Moderate 6.50 in 2.3 iph
02/08/2018 23:35 Ice Warning 21.9F - - 32F 15 0% - - 100% 0 mhos 0 - Snow Slight 6.29 in 0.7 iph
02/08/2018 23:33 Ice Warning 21.9F - - 32F 15 0% - - 100% 0 mhos 0 - Snow Slight 6.28 in 0.6 iph
02/08/2018 23:23 Ice Warning 21.7F - - 32F 15 0% - - 100% 0 mhos 0 - Snow Moderate 6.15 in 1.4 iph
02/08/2018 23:20 Ice Warning 21.6F - - 32F 15 0% - - 100% 0 mhos 0 - Snow Moderate 6.07 in 1.5 iph
02/08/2018 23:13 Ice Warning 21.6F - - 32F 15 0% - - 100% 0 mhos 0 - Snow Moderate 5.86 in 1.8 iph
02/08/2018 23:05 Ice Warning 21.6F - - 32F 15 0% - - 100% 0 mhos 0 - Snow Moderate 5.57 in 2.3 iph
02/08/2018 23:03 Ice Warning 21.6F - - 32F 15 0% - - 100% 0 mhos 0 - Snow Moderate 5.53 in 2.1 iph
Date/Time
(MDT)
Sf
Temp Chem Water Layer Surface Precipitation
Sfc Pvt Sub Frz Factor Pct Dpth DpthThk IcePct Cond Salin FI Type Intens Accum Rate
02/08/2018 22:53 Ice Warning 21.4F - - 32F 20 0% - - 100% 0 mhos 0 - Snow Moderate 5.11 in 2.4 iph
02/08/2018 22:50 Ice Warning 21.2F - - 32F 20 0% - - 100% 0 mhos 0 - Snow Moderate 4.99 in 2.3 iph
02/08/2018 22:43 Ice Warning 21.2F - - 32F 20 0% - - 100% 0 mhos 0 - Snow Heavy 4.70 in 3.7 iph
02/08/2018 22:35 Ice Warning 21.0F - - 32F 15 0% - - 100% 0 mhos 0 - Snow Slight 4.43 in 1.0 iph
02/08/2018 22:33 Ice Warning 21.0F - - 32F 15 0% - - 100% 0 mhos 0 - Snow Slight 4.39 in 0.6 iph
02/08/2018 22:23 Ice Warning 20.8F - - 32F 15 0% - - 100% 0 mhos 0 - Snow Slight 4.31 in 0.1 iph
02/08/2018 22:20 Ice Warning 20.7F - - 32F 15 0% - - 100% 0 mhos 0 - Snow Slight 4.30 in 0.2 iph
02/08/2018 22:13 Ice Warning 20.5F - - 32F 15 0% - - 100% 0 mhos 0 - Snow Slight 4.28 in 0.1 iph
02/08/2018 22:05 Ice Warning 20.5F - - 32F 15 0% - - 100% 0 mhos 0 - Snow Slight 4.27 in 0.0 iph
02/08/2018 22:03 Ice Warning 20.5F - - 32F 15 0% - - 100% 0 mhos 0 - Snow Slight 4.27 in 0.0 iph
02/08/2018 21:53 Ice Warning 20.1F - - 32F 15 0% - - 100% 0 mhos 0 - Snow Slight 4.27 in 0.1 iph
02/08/2018 21:50 Ice Warning 19.9F - - 32F 15 0% - - 100% 0 mhos 0 - Snow Slight 4.26 in 0.2 iph
02/08/2018 21:43 Ice Warning 19.8F - - 32F 15 0% - - 100% 0 mhos 0 - Snow Slight 4.21 in 1.1 iph
02/08/2018 21:35 Ice Warning 19.4F - - 32F 15 0% - - 100% 0 mhos 0 - Snow Slight 4.06 in 0.3 iph
02/08/2018 21:33 Ice Warning 19.4F - - 32F 15 0% - - 100% 0 mhos 0 - Snow Slight 4.04 in 0.7 iph
Date/Time
(MDT)
Sf
Temp Chem Water Layer Surface Precipitation
Sfc Pvt Sub Frz Factor Pct Dpth DpthThk IcePct Cond Salin FI Type Intens Accum Rate
02/08/2018 21:23 Ice Warning 18.9F - - 32F 15 0% - - 100% 0 mhos 0 - Snow Slight 3.90 in 0.7 iph
02/08/2018 21:20 Ice Warning 18.7F - - 32F 15 0% - - 100% 0 mhos 0 - Snow Slight 3.86 in 0.7 iph
02/08/2018 21:13 Ice Warning 18.3F - - 32F 15 0% - - 100% 0 mhos 0 - Snow Slight 3.77 in 0.9 iph
02/08/2018 21:05 Ice Warning 18.0F - - 32F 15 0% - - 100% 0 mhos 0 - Snow Moderate 3.57 in 2.5 iph
02/08/2018 21:03 Ice Warning 17.8F - - 32F 10 0% - - 100% 0 mhos 0 - Snow Moderate 3.49 in 2.4 iph
02/08/2018 20:52 Ice Warning 17.2F - - 32F 10 0% - - 100% 0 mhos 0 - Snow Moderate 3.20 in 1.7 iph
02/08/2018 20:50 Ice Warning 17.1F - - 32F 10 0% - - 100% 0 mhos 0 - Snow Moderate 3.10 in 1.7 iph
02/08/2018 20:42 Ice Warning 16.3F - - 32F 10 0% - - 100% 0 mhos 0 - Snow Heavy 2.79 in 3.8 iph
02/08/2018 20:35 Ice Warning 15.6F - - 32F 5 0% - - 100% 0 mhos 0 - Snow Moderate 2.45 in 2.0 iph
02/08/2018 20:32 Ice Warning 15.3F - - 32F 5 0% - - 100% 0 mhos 0 - Snow Moderate 2.38 in 1.6 iph
02/08/2018 20:22 Ice Warning 14.7F - - 32F 5 0% - - 100% 0 mhos 0 - Snow Slight 2.18 in 0.7 iph
02/08/2018 20:20 Ice Warning 14.7F - - 32F 5 0% - - 100% 0 mhos 0 - Snow Slight 2.15 in 0.6 iph
02/08/2018 20:12 Ice Warning 14.5F - - 32F 5 0% - - 100% 0 mhos 0 - Snow Slight 2.09 in 0.3 iph
02/08/2018 20:05 Ice Warning 14.7F - - 32F 5 0% - - 100% 0 mhos 0 - Snow Slight 2.07 in 0.0 iph
02/08/2018 20:02 Ice Warning 14.9F - - 32F 5 0% - - 100% 0 mhos 0 - Snow Slight 2.07 in 0.0 iph
Date/Time
(MDT)
Sf
Temp Chem Water Layer Surface Precipitation
Sfc Pvt Sub Frz Factor Pct Dpth DpthThk IcePct Cond Salin FI Type Intens Accum Rate
02/08/2018 19:52 Ice Warning 14.9F - - 32F 5 0% - - 100% 0 mhos 0 - None None 2.07 in 0.0 iph
02/08/2018 19:50 Ice Warning 14.7F - - 32F 5 0% - - 100% 0 mhos 0 - None None 2.07 in 0.0 iph
02/08/2018 19:42 Ice Warning 14.2F - - 32F 5 0% - - 100% 0 mhos 0 - Snow Slight 2.07 in 0.0 iph
02/08/2018 19:35 Ice Warning 14.2F - - 32F 5 0% - - 100% 0 mhos 0 - Snow Slight 2.06 in 0.1 iph
02/08/2018 19:32 Ice Warning 14.0F - - 32F 5 0% - - 100% 0 mhos 0 - Snow Slight 2.06 in 0.1 iph
02/08/2018 19:22 Ice Warning 13.8F - - 32F 5 0% - - 100% 0 mhos 0 - Snow Slight 2.06 in 0.0 iph
02/08/2018 19:20 Ice Warning 14.0F - - 32F 5 0% - - 100% 0 mhos 0 - Snow Slight 2.06 in 0.0 iph
02/08/2018 19:12 Ice Warning 14.2F - - 32F 5 0% - - 100% 0 mhos 0 - Snow Slight 2.06 in 0.0 iph
02/08/2018 19:05 Ice Warning 14.4F - - 32F 5 0% - - 100% 0 mhos 0 - Snow Slight 2.06 in 0.1 iph
02/08/2018 19:02 Ice Warning 14.4F - - 32F 5 0% - - 100% 0 mhos 0 - Snow Slight 2.05 in 0.1 iph
02/08/2018 18:52 Ice Warning 14.9F - - 32F 5 0% - - 100% 0 mhos 0 - Snow Slight 2.04 in 0.0 iph
02/08/2018 18:50 Ice Warning 14.7F - - 32F 5 0% - - 100% 0 mhos 0 - Snow Slight 2.04 in 0.0 iph
02/08/2018 18:42 Ice Warning 15.4F - - 32F 5 0% - - 100% 0 mhos 0 - Snow Slight 2.04 in 0.1 iph
02/08/2018 18:35 Ice Warning 15.4F - - 32F 5 0% - - 100% 0 mhos 0 - Snow Moderate 2.00 in 1.2 iph
Change End Date:

Copyright © 1998-2015 Vaisala, Inc.
All Rights Reserved
Send comments about the data to:
SCAN Web ® is a registered trademark of Vaisala, Inc.
SCAN Web Version 6.0